NEE 01 PEGASUS

Satellite information

Favourite Embed

Satellite Type and Status

PAYLOADIN ORBIT

Key statistics

Satellite NEE 01 PEGASUS at a glance.

Uptime

4619

Days in orbit

Revolutions

≈ 14.9

Per day

Orbit

SSO

Sun Synchronous Orbit

Inclination

98.1

Latest

Satellite identification and parameters

Extended collection of information and parameters for NEE 01 PEGASUS.

Object identification

Identified? True

Debris? False

Object name: NEE 01 PEGASUS

International designator: 2013-018B

Object number (NORAD): 39151

Object ID (CCSDS): 39151

Country: ECUADOR (ECU)

Current information (Y/N): Y

RCS size: SMALL

Orbital parameters

Period: 96.49 minutes

Inclination: 98.0957 deg

SMA: 6968.655 km

Apoapsis: 600.078 km

Periapsis: 580.963 km

RAAN: 124.9254 deg

Eccentricy: 0.00137154

Argument of periapsis: 47.0123 deg

Mean anomaly: 313.2243 deg

Mean motion: 14.92379537 rev/day

Mean motion (dot): 0.00002872 rev/day2

B* drag term: 0.0002860556 1/REarth

Two-line elements (TLE)

Creation date: Dec. 17, 2025, 11:34 a.m.

Reference frame: TEME

Reference center: EARTH

Epoch: Dec. 17, 2025, 7:37 a.m. UTC

TLE line 0: 0 NEE 01 PEGASUS

TLE line 1: 1 39151U 13018B 25351.31742006 .00002872 00000-0 28606-3 0 9995

TLE line 2: 2 39151 98.0957 124.9254 0013715 47.0123 313.2243 14.92379537683566

Live tracking on map

Real-time ground track for satellite NEE 01 PEGASUS.

In-orbit conjunctions

There are no conjunctions computed for NEE 01 PEGASUS, at the moment. Check back to stay up to date, as we update our databases every day.

Go to all conjunctions

Associated space launch

NEE 01 PEGASUS was lifted into orbit during the mission ‘Long March 2D | Gaofen 1’, on board a Long March 2D space rocket.

The launch took place on April 26, 2013, 4:13 a.m. from Launch Area 94 (SLS-2 / 603).

For more information about the launch, click the button.

Launch to space Long March 2D | Gaofen 1
Long March 2D | Gaofen 1

Agency: N/A

Status: Launch Successful

Launch date: April 26, 2013, 4:13 a.m. UTC

Rocket: Long March 2D

Launch pad: Launch Area 94 (SLS-2 / 603)

Location: Jiuquan Satellite Launch Center, People's Republic of China

...

Latest news about this satellite

There are no fresh news available about this satellite. Check back as we update our databases every day.


Newsletter sign-up

Weekly statistics, charts and insights to help you stay on top of the space industry.